CST,Max TemperatureF,Mean TemperatureF,Min TemperatureF,Max Dew PointF,MeanDew PointF,Min DewpointF,Max Humidity, Mean Humidity, Min Humidity, Max Sea Level PressureIn, Mean Sea Level PressureIn, Min Sea Level PressureIn, Max VisibilityMiles, Mean VisibilityMiles, Min VisibilityMiles, Max Wind SpeedMPH, Mean Wind SpeedMPH, Max Gust SpeedMPH,PrecipitationIn, CloudCover, Events, WindDirDegrees
2013-12-1,47,36,24,29,27,21,92,71,49,30.15,30.08,30.00,9,7,6,8,3,9,0.00,3,,40
2013-12-2,45,38,30,36,32,27,92,77,62,29.94,29.76,29.66,7,4,2,17,8,22,0.02,7,,103
2013-12-3,50,41,31,47,40,28,100,93,86,29.67,29.65,29.60,4,2,0,12,6,16,T,6,Fog,115
2013-12-4,53,40,27,52,43,21,100,89,78,29.82,29.62,29.47,10,3,0,30,10,38,0.01,7,Fog-Rain,169
2013-12-5,27,22,16,21,11,7,81,69,57,30.35,30.10,29.82,10,9,1,29,16,37,0.01,4,Snow,288
2013-12-6,19,14,9,7,3,1,73,59,45,30.65,30.49,30.35,10,10,10,17,11,22,0.00,2,,312
2013-12-7,18,10,2,5,0,-4,80,62,43,30.78,30.69,30.62,10,10,10,14,5,17,0.00,0,,324
2013-12-8,22,18,13,19,15,1,92,75,58,30.57,30.17,29.99,10,4,0,20,9,23,0.13,8,Fog-Snow,81
2013-12-9,22,9,-4,18,6,-9,87,74,60,30.31,30.16,29.99,10,7,1,24,12,29,0.01,3,Snow,264
2013-12-10,21,10,-1,10,5,-4,74,63,51,30.31,30.19,30.06,10,10,10,30,11,39,T,4,,252
2013-12-11,19,8,-3,14,3,-10,88,72,55,30.66,30.49,30.29,10,8,2,22,9,26,0.02,4,Snow,313
2013-12-12,24,11,-3,12,3,-10,88,73,57,30.61,30.39,30.24,10,10,9,17,5,24,0.00,1,,241
2013-12-13,31,18,5,25,19,2,92,78,63,30.21,30.08,30.04,10,4,1,15,6,18,0.08,6,Snow,68
2013-12-14,28,22,16,25,21,9,92,83,73,30.10,30.03,29.98,10,5,1,17,10,23,0.07,7,Snow,15
2013-12-15,16,13,10,10,6,1,80,70,59,30.16,30.12,30.06,10,7,1,18,8,25,0.04,7,Snow,306
2013-12-16,21,17,13,18,11,8,91,82,73,30.15,30.10,30.04,10,6,1,12,6,13,0.03,8,Snow,74
2013-12-17,36,26,16,25,18,12,92,74,56,30.21,30.11,30.05,10,8,2,26,13,44,T,3,Snow,269
2013-12-18,39,24,8,28,18,6,84,64,43,30.21,29.98,29.82,10,10,10,22,6,30,0.00,0,,185
2013-12-19,39,31,22,34,30,21,100,82,64,29.90,29.82,29.76,10,7,2,14,6,16,0.10,5,Rain,71
2013-12-20,34,31,27,34,28,25,96,91,85,29.87,29.81,29.74,9,4,1,16,7,20,0.06,8,Rain,5
2013-12-21,31,29,26,28,26,24,92,89,85,29.89,29.80,29.67,6,4,1,16,7,20,0.05,8,Rain-Snow,18
2013-12-22,30,24,17,28,22,12,92,83,73,30.25,29.87,29.65,10,5,0,18,10,23,0.52,8,Fog-Snow,336
2013-12-23,17,8,-2,7,-3,-8,80,73,66,30.57,30.45,30.23,10,10,10,21,14,25,0.00,2,,281
2013-12-24,19,3,-13,10,-4,-17,87,76,65,30.62,30.51,30.32,10,10,10,13,6,17,0.00,4,,186
2013-12-25,27,23,19,22,18,10,88,78,67,30.29,30.22,30.16,10,7,2,23,10,29,T,7,Snow,244
2013-12-26,36,23,9,27,19,6,96,80,63,30.28,30.23,30.14,10,10,7,15,5,21,0.00,5,,225
2013-12-27,40,27,13,30,22,12,92,76,59,30.30,30.21,30.10,10,9,0,18,7,24,0.00,0,Fog,226
2013-12-28,46,40,33,32,30,28,82,70,57,30.11,29.97,29.81,10,10,10,17,8,25,0.00,0,,218
2013-12-29,40,20,0,29,13,-9,92,77,62,30.34,30.07,29.80,10,9,4,26,17,33,T,6,Snow,302
2013-12-30,11,4,-4,39,1,-12,83,64,45,30.41,30.27,30.20,10,5,1,7,2,9,0.07,6,Snow,194
2013-12-31,14,5,-4,6,2,-7,91,81,70,30.40,30.32,30.22,10,7,2,17,6,20,T,5,,48